Change the Weather History Date:

Wednesday, April 10, 2013

  Actual Average Record
Temperature  
Mean Temperature 56 °F -  
Max Temperature 70 °F 62 °F 82 °F (2005)
Min Temperature 42 °F 42 °F 32 °F (1997)
Degree Days  
Heating Degree Days 9    
Growing Degree Days 6 (Base 50)    
Moisture  
Dew Point 50 °F    
Average Humidity 97    
Maximum Humidity 100    
Minimum Humidity 73    
Precipitation  
Precipitation 0.95 in - - ()
Sea Level Pressure  
Sea Level Pressure 29.79 in    
Wind  
Wind Speed 13 mph (NW)    
Max Wind Speed 30 mph    
Max Gust Speed 39 mph    
Visibility 9 miles    
Events Rain , Thunderstorm    
Averages and records for this station are not official NWS values.
T = Trace of Precipitation, MM = Missing Value Source: NWS Daily Summary

Daily Weather History Graph

Daily Weather History Graph

Search for Another Location

Airport or City:

Trip Planner

Search our weather history database for the weather conditions in past years. The results will help you decide how hot, cold, wet, or windy it might be!

Date:

Astronomy

Apr. 10, 2013 Rise Set
Actual Time 6:44 AM CDT 7:46 PM CDT
Civil Twilight 6:17 AM CDT 8:13 PM CDT
Nautical Twilight 5:45 AM CDT 8:46 PM CDT
Astronomical Twilight 5:11 AM CDT 9:20 PM CDT
Moon 6:41 AM CDT (4/10) 8:22 PM CDT (4/10)
Length of Visible Light 13h 56m
Length of Day
13h 01m
New Moon, 0% of the Moon is Illuminated
Apr 10
New Moon
Apr 18
First Quarter
Apr 25
Full
May 2
Last Quarter
May 9
New

Hourly Weather History & Observations

Time (CDT) Temp. Windchill Dew Point Humidity Pressure Visibility Wind Dir Wind Speed Gust Speed Precip Events Conditions
12:58 AM 70.2 °F - 61.2 °F 73% 29.71 in 10.0 mi SSE 8.1 mph - N/A   Mostly Cloudy
1:58 AM 69.3 °F - 61.2 °F 75% 29.71 in 10.0 mi South 10.4 mph - N/A   Overcast
2:05 AM 69.8 °F - 60.8 °F 73% 29.75 in 10.0 mi West 18.4 mph 23.0 mph N/A   Overcast
2:15 AM 69.8 °F - 60.8 °F 73% 29.77 in 10.0 mi NW 26.5 mph 39.1 mph N/A   Overcast
2:16 AM 69.8 °F - 60.8 °F 73% 29.77 in 10.0 mi NW 29.9 mph 39.1 mph N/A   Overcast
2:31 AM 57.2 °F - 55.4 °F 94% 29.80 in 10.0 mi NW 24.2 mph 39.1 mph N/A   Overcast
2:38 AM 55.4 °F - 53.6 °F 94% 29.81 in 10.0 mi NNW 21.9 mph 33.4 mph N/A   Light Drizzle
2:47 AM 53.6 °F - 51.8 °F 94% 29.81 in 10.0 mi North 20.7 mph 34.5 mph N/A   Overcast
2:58 AM 52.7 °F - 51.8 °F 97% 29.81 in 10.0 mi North 16.1 mph 21.9 mph 0.00 in   Overcast
3:13 AM 53.6 °F - 51.8 °F 94% 29.80 in 10.0 mi North 23.0 mph - N/A   Overcast
3:58 AM 55.6 °F - 54.1 °F 95% 29.77 in 10.0 mi NNE 9.2 mph - N/A Thunderstorm Overcast
4:02 AM 55.4 °F - 53.6 °F 94% 29.76 in 10.0 mi NE 10.4 mph - N/A Thunderstorm Thunderstorm
4:03 AM 55.4 °F - 53.6 °F 94% 29.76 in 10.0 mi NE 10.4 mph - N/A Thunderstorm Overcast
4:58 AM 56.5 °F - 55.9 °F 98% 29.74 in 10.0 mi ENE 11.5 mph - N/A   Overcast
5:38 AM 57.2 °F - 55.4 °F 94% 29.81 in 10.0 mi NNW 10.4 mph 38.0 mph N/A   Light Drizzle
5:58 AM 55.2 °F - 55.2 °F 100% 29.82 in 10.0 mi North 5.8 mph - 0.00 in Rain Light Rain
6:17 AM 55.4 °F - 55.4 °F 100% 29.79 in 10.0 mi NE 5.8 mph - N/A   Overcast
6:58 AM 54.5 °F - 54.5 °F 100% 29.83 in 10.0 mi NNW 5.8 mph - 0.00 in   Overcast
7:30 AM 53.6 °F - 53.6 °F 100% 29.83 in 10.0 mi NW 11.5 mph - N/A   Light Drizzle
7:54 AM 53.6 °F - 53.6 °F 100% 29.83 in 10.0 mi NW 10.4 mph - N/A   Overcast
7:58 AM 52.7 °F - 52.7 °F 100% 29.83 in 10.0 mi NW 10.4 mph - 0.00 in   Overcast
8:15 AM 51.8 °F - 51.8 °F 100% 29.84 in 10.0 mi NNW 8.1 mph - N/A Rain , Thunderstorm Light Thunderstorms and Rain
8:43 AM 51.8 °F - 51.8 °F 100% 29.85 in 3.0 mi South 4.6 mph - N/A Rain , Thunderstorm Light Thunderstorms and Rain
8:58 AM 51.8 °F - 51.8 °F 100% 29.85 in 3.0 mi NNW 4.6 mph - 0.12 in Rain , Thunderstorm Light Thunderstorms and Rain
9:07 AM 51.8 °F - 51.8 °F 100% 29.84 in 10.0 mi North 8.1 mph - N/A Rain , Thunderstorm Light Rain
9:23 AM 51.8 °F - 51.8 °F 100% 29.78 in 10.0 mi North 19.6 mph - N/A Rain Heavy Rain
9:28 AM 51.8 °F - 51.8 °F 100% 29.80 in 10.0 mi NNW 12.7 mph - N/A Rain Rain
9:38 AM 51.8 °F - 51.8 °F 100% 29.84 in 10.0 mi NW 12.7 mph - N/A Rain Light Rain
9:43 AM 51.8 °F - 51.8 °F 100% 29.83 in 10.0 mi NNW 13.8 mph - N/A   Light Drizzle
9:46 AM 51.8 °F - 51.8 °F 100% 29.83 in 10.0 mi NNW 10.4 mph - N/A   Overcast
9:58 AM 51.8 °F - 51.8 °F 100% 29.84 in 10.0 mi NW 8.1 mph - 0.02 in   Overcast
10:17 AM 50.0 °F - 50.0 °F 100% 29.87 in 9.0 mi West 9.2 mph - N/A Rain Light Rain
10:25 AM 50.0 °F - 50.0 °F 100% 29.87 in 4.0 mi WNW 13.8 mph - N/A Rain Heavy Rain
10:29 AM 50.0 °F - 50.0 °F 100% 29.87 in 4.0 mi NW 12.7 mph - N/A Rain Heavy Rain
10:58 AM 48.7 °F - 48.7 °F 100% 29.88 in 10.0 mi NNW 8.1 mph - 0.08 in   Light Drizzle
11:58 AM 48.4 °F - 48.4 °F 100% 29.80 in 6.0 mi NNE 9.2 mph - 0.11 in Rain Light Rain
12:31 PM 48.2 °F - 48.2 °F 100% 29.80 in 10.0 mi North 11.5 mph - N/A Rain Light Rain
12:58 PM 48.4 °F - 48.4 °F 100% 29.83 in 10.0 mi NW 9.2 mph - 0.02 in   Overcast
1:08 PM 48.2 °F - 48.2 °F 100% 29.83 in 10.0 mi NNW 11.5 mph - N/A   Overcast
1:33 PM 48.2 °F - 48.2 °F 100% 29.82 in 10.0 mi NNW 11.5 mph - N/A   Overcast
1:50 PM 46.4 °F 42.4 °F 46.4 °F 100% 29.80 in 10.0 mi North 8.1 mph - N/A   Light Drizzle
1:58 PM 46.4 °F 41.9 °F 46.4 °F 100% 29.79 in 9.0 mi North 9.2 mph - 0.00 in Rain Light Rain
2:58 PM 48.4 °F - 48.4 °F 100% 29.77 in 10.0 mi NNW 11.5 mph - 0.02 in Rain Light Rain Showers
3:26 PM 48.2 °F - 48.2 °F 100% 29.78 in 2.5 mi WNW 10.4 mph - N/A Rain , Thunderstorm Heavy Rain
3:33 PM 48.2 °F - 48.2 °F 100% 29.78 in 4.0 mi WNW 15.0 mph 19.6 mph N/A Rain Heavy Rain
3:58 PM 45.9 °F 39.4 °F 45.9 °F 100% 29.80 in 5.0 mi WNW 15.0 mph 25.3 mph 0.24 in Rain , Thunderstorm Light Rain
4:23 PM 44.6 °F 38.1 °F 44.6 °F 100% 29.76 in 8.0 mi NW 13.8 mph - N/A Rain Light Rain
4:58 PM 45.7 °F 40.6 °F 45.7 °F 100% 29.75 in 8.0 mi WNW 10.4 mph - 0.11 in Rain Light Rain
5:08 PM 46.4 °F 40.7 °F 46.4 °F 100% 29.74 in 10.0 mi NW 12.7 mph - N/A   Light Drizzle
5:18 PM 46.4 °F 41.1 °F 46.4 °F 100% 29.73 in 7.0 mi NNW 11.5 mph - N/A Rain Rain
5:28 PM 46.4 °F 41.1 °F 46.4 °F 100% 29.73 in 9.0 mi NW 11.5 mph - N/A Rain Light Rain
5:54 PM 44.6 °F 38.8 °F 44.6 °F 100% 29.71 in 9.0 mi WNW 11.5 mph - N/A Rain , Thunderstorm Light Thunderstorms and Rain
5:58 PM 45.3 °F 39.7 °F 45.3 °F 100% 29.74 in 10.0 mi West 11.5 mph - 0.12 in Rain , Thunderstorm Light Thunderstorms and Rain
6:03 PM 44.6 °F 39.2 °F 44.6 °F 100% 29.73 in 10.0 mi WNW 10.4 mph - N/A Rain Light Rain
6:20 PM 44.6 °F 40.2 °F 44.6 °F 100% 29.73 in 10.0 mi WNW 8.1 mph - N/A Rain Light Rain
6:58 PM 45.1 °F - 45.1 °F 100% 29.73 in 6.0 mi East 2.3 mph - 0.06 in Rain Light Rain
7:58 PM 43.7 °F 37.3 °F 43.7 °F 100% 29.74 in 5.0 mi West 12.7 mph - 0.04 in Rain Light Rain
8:23 PM 42.8 °F 36.2 °F 42.8 °F 100% 29.74 in 6.0 mi West 12.7 mph - N/A   Light Drizzle
8:58 PM 43.3 °F 37.2 °F 43.3 °F 100% 29.78 in 5.0 mi West 11.5 mph - 0.01 in   Light Drizzle
9:13 PM 42.8 °F 35.8 °F 42.8 °F 100% 29.76 in 4.0 mi West 13.8 mph - N/A   Light Drizzle
9:58 PM 43.3 °F 36.8 °F 43.3 °F 100% 29.78 in 6.0 mi West 12.7 mph - 0.00 in   Light Drizzle
10:12 PM 42.8 °F 38.0 °F 42.8 °F 100% 29.76 in 8.0 mi West 8.1 mph - N/A   Overcast
10:27 PM 42.8 °F 36.6 °F 42.8 °F 100% 29.76 in 10.0 mi West 11.5 mph - N/A   Overcast
10:58 PM 43.3 °F 38.1 °F 43.3 °F 100% 29.77 in 10.0 mi West 9.2 mph - 0.00 in   Overcast
11:03 PM 42.8 °F 37.0 °F 42.8 °F 100% 29.76 in 10.0 mi West 10.4 mph - N/A   Overcast
11:13 PM 42.8 °F 38.0 °F 42.8 °F 100% 29.75 in 10.0 mi West 8.1 mph - N/A   Overcast
11:18 PM 42.8 °F 38.0 °F 42.8 °F 100% 29.75 in 10.0 mi West 8.1 mph - N/A   Overcast
11:48 PM 42.8 °F 37.0 °F 42.8 °F 100% 29.75 in 10.0 mi WSW 10.4 mph - N/A   Overcast
11:58 PM 43.3 °F 36.5 °F 43.3 °F 100% 29.77 in 10.0 mi WSW 13.8 mph - N/A   Overcast